sat.trackr.live / text

‹ back to catalog

STARLINK-31500

NORAD 59305 · 2024-056K

PAYLOAD ACTIVE UNKNOWN

§ Identity

Operator
Country
US
Launch date
2024-03-24
Launch site
AFETR
Launch vehicle
Mass (kg)
RCS (m²)

Purposes: comms

External: N2YO · Heavens-Above · Gunter

§ Orbital elements

Epoch: 2026-05-25T01:28:06.009024Z

Period
94.27 min
Inclination
43.0006°
Eccentricity
0.0001206
Mean motion
15.27576041 rev/d
Perigee alt
482.2 km
Apogee alt
483.9 km
Semi-major
6,861.2 km
B*
1.5886e-5
RAAN
159.4632°
Arg perigee
275.1044°
Mean anomaly
84.9670°
Rev number
12,283

§ Raw data

STARLINK-315001 59305U 24056K   26145.06118066  .00000175  00000+0  15886-4 0  99992 59305  43.0006 159.4632 0001206 275.1044  84.9670 15.27576041122837

JSON: /api/v1/satellites/59305 · /tle

For live sub-satellite position, see the globe view (requires WebGL).

§ Visibility from observer

Set your observer location to see the next 7 days of passes ≥ 10°. The values pass through the URL so the page stays shareable.

No JS? Fill the form by hand. The geolocation button needs JavaScript.